This demonstration page uses our WeatherBlox Daily Observations layout. Learn more.

40.92945, -100.16068

Hourly Observations for April 25, 2018

Temp ( °F °C ) Dew Point ( °F °C ) Humidity (%) Winds ( mph kmh ) Pressure ( in mb ) Visibility ( mi km ) Precip ( " mm )
12:16 am 00:16 Cloudy 39 4 36 2 87 87 NNW 14 22 30.42 1030 10 16.0934 0 0
12:35 am 00:35 Cloudy 39 4.1 35 1.6 84 84 NNW 12 19 30.42 1030 10 16.0934 0 0
12:55 am 00:55 Cloudy 39 4 35 1.8 86 86 NW 13 20 30.42 1030 10 16.0934 0 0
1:15 am 01:15 Cloudy 39 4 35 1.8 86 86 NNW 13 20 30.42 1030 10 16.0934 0 0
1:35 am 01:35 Cloudy 39 4 35 1.8 86 86 NNW 13 20 30.42 1030 10 16.0934 0 0
1:55 am 01:55 Cloudy with Light Drizzle 39 4 35 1.8 86 86 NNW 13 20 30.39 1029 10 16.0934 0 0
2:15 am 02:15 Cloudy with Rain 39 4 36 2 87 87 NNW 13 20 30.39 1029 10 16.0934 0 0
2:35 am 02:35 Cloudy 39 4 36 2 87 87 NNW 12 19 30.39 1029 10 16.0934 0 0
2:55 am 02:55 Cloudy with Light Drizzle 39 4.1 36 2 86 86 NNW 12 19 30.39 1029 10 16.0934 0 0
3:15 am 03:15 Cloudy 39 4.1 36 2 86 86 NW 10 17 30.39 1029 10 16.0934 0 0
3:35 am 03:35 Cloudy 39 4.1 36 2 86 86 NNW 10 17 30.39 1029 10 16.0934 0 0
3:55 am 03:55 Cloudy with Light Drizzle 39 4.1 35 1.8 85 85 NNW 10 17 30.39 1029 10 16.0934 0 0
4:15 am 04:15 Cloudy with Light Drizzle 39 4.1 35 1.8 85 85 NNW 12 19 30.39 1029 10 16.0934 0 0
4:35 am 04:35 Cloudy with Light Drizzle 40 4.2 35 1.9 85 85 NNW 12 19 30.39 1029 10 16.0934 0 0
4:55 am 04:55 Cloudy 40 4.2 35 1.9 85 85 NW 12 19 30.39 1029 10 16.0934 0 0
5:15 am 05:15 Cloudy 40 4.2 36 2 86 86 NNW 13 20 30.39 1029 10 16.0934 0 0
5:35 am 05:35 Cloudy 40 4.2 36 2 86 86 NNW 13 20 30.39 1029 10 16.0934 0 0
5:55 am 05:55 Cloudy with Light Rain 39 4.1 35 1.8 85 85 NNW 10 17 30.39 1029 10 16.0934 0 0
6:15 am 06:15 Cloudy with Light Rain 39 4.1 36 2 86 86 NNW 12 19 30.39 1029 10 16.0934 0.01 0.254
6:35 am 06:35 Cloudy with Light Drizzle 39 4.1 36 2 86 86 NNW 9 15 30.39 1029 10 16.0934 0.01 0.254
6:55 am 06:55 Cloudy 39 4.1 36 2 86 86 NNW 8 13 30.39 1029 10 16.0934 0.01 0.254
7:15 am 07:15 Cloudy 39 4.1 36 2.1 87 87 NNW 6 9 30.39 1029 10 16.0934 0 0
7:35 am 07:35 Cloudy 40 4.2 36 2.3 88 88 NNE 3 6 30.39 1029 10 16.0934 0 0
7:55 am 07:55 Cloudy 40 4.7 37 2.7 87 87 NE 3 6 30.39 1029 10 16.0934 0 0
8:15 am 08:15 Partly Cloudy 41 5 37 2.5 84 84 NNE 5 7 30.39 1029 10 16.0934 0 0
8:35 am 08:35 Sunny 42 5.3 36 2.4 82 82 N 5 7 30.39 1029 10 16.0934 0 0
8:55 am 08:55 Partly Cloudy 42 5.8 36 2.4 79 79 NNW 7 11 30.39 1029 10 16.0934 0 0
9:15 am 09:15 Partly Cloudy 43 6.3 37 2.9 79 79 NNW 6 9 30.39 1029 10 16.0934 0 0
9:35 am 09:35 Mostly Cloudy 44 6.5 38 3.1 79 79 NNW 9 15 30.39 1029 10 16.0934 0 0
9:55 am 09:55 Cloudy 44 6.8 37 2.5 74 74 NNW 9 15 30.33 1027 10 16.0934 0 0
10:15 am 10:15 Partly Cloudy 46 7.7 37 2.5 70 70 N 6 9 30.33 1027 10 16.0934 0 0
10:35 am 10:35 Mostly Cloudy 47 8.4 37 2.6 67 67 NNW 8 13 30.33 1027 10 16.0934 0 0
10:55 am 10:55 Mostly Cloudy 48 8.7 35 1.8 62 62 N 10 17 30.33 1027 10 16.0934 0 0
11:15 am 11:15 Partly Cloudy 49 9.6 37 2.5 62 62 NNE 13 20 30.27 1025 10 16.0934 0 0
11:35 am 11:35 Mostly Cloudy 50 9.8 36 2.1 59 59 N 13 20 30.27 1025 10 16.0934 0 0
11:55 am 11:55 Partly Cloudy 50 10.2 34 1.1 54 54 N 8 13 30.27 1025 10 16.0934 0 0
12:15 pm 12:15 Sunny 51 10.7 35 1.6 54 54 N 10 17 30.27 1025 10 16.0934 0 0
12:35 pm 12:35 Sunny 52 11.3 35 1.7 52 52 NNW 12 19 30.27 1025 10 16.0934 0 0
12:55 pm 12:55 Sunny 53 11.6 36 2 52 52 N 12 19 30.24 1024 10 16.0934 0 0
1:15 pm 13:15 Sunny 53 11.8 35 1.4 49 49 N 8 13 30.24 1024 10 16.0934 0 0
1:35 pm 13:35 Sunny 55 12.5 35 1.7 48 48 NNW 10 17 30.18 1022 10 16.0934 0 0
1:55 pm 13:55 Sunny 55 12.8 33 0.8 44 44 N 10 17 30.18 1022 10 16.0934 0 0
2:15 pm 14:15 Sunny 55 12.7 32 0.1 42 42 N 8 13 30.15 1021 10 16.0934 0 0
2:35 pm 14:35 Sunny 55 12.9 33 0.4 43 43 E 3 6 30.15 1021 10 16.0934 0 0
2:55 pm 14:55 Sunny 56 13.4 32 0 40 40 Calm 30.15 1021 10 16.0934 0 0
3:15 pm 15:15 Sunny 57 14 35 1.4 43 43 N 8 13 30.15 1021 10 16.0934 0 0
3:35 pm 15:35 Sunny 58 14.3 33 0.3 39 39 N 6 9 30.12 1020 10 16.0934 0 0
3:55 pm 15:55 Sunny 58 14.5 32 -0.1 37 37 NNW 6 9 30.09 1019 10 16.0934 0 0
4:15 pm 16:15 Sunny 58 14.5 32 0 37 37 Calm 30.06 1018 10 16.0934 0 0
4:35 pm 16:35 Sunny 59 15 32 -0.1 36 36 NE 3 6 30.06 1018 10 16.0934 0 0
4:55 pm 16:55 Sunny 59 15.1 32 -0.2 35 35 N 5 7 30.06 1018 10 16.0934 0 0
5:15 pm 17:15 Sunny 61 15.9 31 -0.6 33 33 WNW 7 11 30.06 1018 10 16.0934 0 0
5:35 pm 17:35 Sunny 60 15.5 30 -1.2 32 32 NW 6 9 30.03 1017 10 16.0934 0 0
5:55 pm 17:55 Sunny 61 15.9 30 -1 32 32 NNE 5 7 30.03 1017 10 16.0934 0 0
6:15 pm 18:15 Sunny 60 15.6 30 -1.2 32 32 ENE 3 6 30.03 1017 10 16.0934 0 0
6:35 pm 18:35 Sunny 60 15.7 30 -1.2 32 32 Calm 30 1016 10 16.0934 0 0
6:55 pm 18:55 Sunny 60 15.6 30 -0.9 33 33 Calm 30 1016 10 16.0934 0 0
7:15 pm 19:15 Sunny 60 15.3 30 -1.3 32 32 Calm 30 1016 10 16.0934 0 0
7:35 pm 19:35 Sunny 57 13.8 34 0.9 42 42 SSE 3 6 30 1016 10 16.0934 0 0
7:55 pm 19:55 Sunny 57 14.1 30 -0.9 36 36 SSE 5 7 30 1016 10 16.0934 0 0
8:15 pm 20:15 Sunny 54 12.4 35 1.9 49 49 SSE 7 11 30.03 1017 10 16.0934 0 0
8:35 pm 20:35 Clear 54 12.2 33 0.5 45 45 SSE 7 11 30.03 1017 10 16.0934 0 0
8:55 pm 20:55 Clear 51 10.3 35 1.6 55 55 S 7 11 30.03 1017 10 16.0934 0 0
9:15 pm 21:15 Clear 50 9.8 35 1.7 57 57 S 7 11 30.06 1018 10 16.0934 0 0
9:35 pm 21:35 Clear 47 8.3 34 1.1 61 61 S 6 9 30.06 1018 10 16.0934 0 0
9:55 pm 21:55 Clear 46 7.6 34 1 63 63 S 7 11 30.06 1018 10 16.0934 0 0
10:15 pm 22:15 Clear 46 7.6 34 1 63 63 S 6 9 30.06 1018 10 16.0934 0 0
10:35 pm 22:35 Clear 44 6.9 34 1.3 68 68 S 8 13 30.09 1019 10 16.0934 0 0
10:55 pm 22:55 Clear 44 6.9 36 2 71 71 S 8 13 30.03 1017 10 16.0934 0 0
11:15 pm 23:15 Clear 45 7.1 36 2.1 71 71 S 9 15 30.03 1017 10 16.0934 0 0
11:35 pm 23:35 Clear 46 7.7 36 2.2 68 68 S 9 15 30.03 1017 10 16.0934 0 0
11:55 pm 23:55 Clear 45 7.4 35 1.9 68 68 S 9 15 30.03 1017 10 16.0934 0 0

Powered by AerisWeather